STARLINK-34045, 63979

Orbit data source: Space-Track

STARLINK-34045, 63979 is a payload satellite owned by SpaceX/Seattle (US) in LEO that was launched on Tue, 13 May 2025 UTC via an FALCON 9 launch vehicle from the Air Force Eastern Test Range (AFETR). Payload-class satellites include a variety of spacecraft equipped with specific instruments for various scientific and technological missions. These include communications satellites like Starlink; space stations such as the ISS; scientific satellites like the Hubble; Earth observation satellites from companies like Planet Labs, Umbra, and HawkEye 360; GPS; miniature CubeSats for education and research; and military/defense satellites.

Loading next visibility...
Identifier
63979, 2025-099AD
Orbit
LEO
Country
Flag of USUS
Related business
Manufacturer
SpaceX/Seattle
Mission
Operational Commercial Communications
Bus & Motor
STARLINK V2MO, Unknown motor
Mass
575 kg wet, ~530 kg dry
Launch date (UTC)
2025-05-13 (11 months ago)
Launch vehicle
FALCON 9
Launch site
Air Force Eastern Test Range (AFETR)
Object type
Payload
Rocket body
Debris
Shape & HBR
Box + 2 Pan, 17.7 m
Radar Cross Section
36.964 m², Large (>1 m²)

Expand to show TLE details & history
Last TLE update: 15 hours ago

TLE from 15 hours ago
0 STARLINK-34045
1 63979U 25099AD  26093.83752774  .00056587  00000-0  20506-2 0  9998
2 63979  42.9990  30.6113 0000620 268.3896  91.6885 15.27571691 51134
Epoch: 2026-04-03T20:06Z
TLE epoch observation values (Epoch: 2026-04-03T20:06:02.396Z)
Latitude
-0°
Longitude
-103.06461°
Altitude
482.862 km
Speed
7.626 km/s
True Right ascension
02h 02m 26s
True Declination
0° 00' 00"
Sunlit
Object was in daylight at epoch
Visualization orbit readout
Latitude
Unknown
Longitude
Unknown
Altitude
Unknown
Speed
Unknown
Apparent Right ascension
Unknown
Apparent Declination
Unknown
Sunlit
N/A
Visualization observer readout
Local Sidereal Time
17:25:45
Azimuth
Unknown
Elevation
Unknown
Doppler factor
Unknown
Orbital elements
Apogee altitude
485.445 km
Perigee altitude
484.594 km
Semi-major axis
6,863.156 km
Eccentricity
0.00006
Inclination
42.999°
RAAN
30.6113°
Arg. of periapsis
268.3896°
True anomaly
91.6956°
Mean anomaly
91.6885°
Eccentric anomaly
91.69205°
Mean motion
3.81731 °/min
Orbital period
94.31 mins
BSTAR
0.0020506
Loading maneuver chart data...
Computing Atmospheric mass density...
Loading historical data...
Loading historical data...
Loading historical data...
Loading historical data...
Loading historical data...
Loading historical data...
Loading historical data...

Documentation

Showing up to 5 results
|